Location: Poughquag
(41.6090°N, 73.6820°W)
Time: 18:29:53
(UTC-04:00)

deb Explorer IX - All Passes

Search period start: 30 March 2020 00:00
Search period end: 09 April 2020 00:00
Orbit: 547 x 1100 km, 38.8° (Epoch: 30 March)

Date Brightness Start Highest point End Pass type
(mag) Time Alt. Az. Time Alt. Az. Time Alt. Az.
30 Mar - 01:31:55 10° W 01:37:57 35° SSW 01:44:24 10° SE night (unlit)
30 Mar - 03:21:46 10° WSW 03:24:21 12° SW 03:26:58 10° SSW night (unlit)
30 Mar - 19:50:00 10° SW 19:54:38 35° SSE 20:00:01 10° E visible
30 Mar - 21:35:47 10° WSW 21:41:18 66° S 21:47:48 10° E visible
30 Mar - 23:22:23 10° W 23:28:26 63° S 23:35:18 10° ESE visible
31 Mar - 01:09:30 10° W 01:15:23 35° SSW 01:21:45 10° SE night (unlit)
31 Mar - 02:59:28 10° WSW 03:01:47 12° SW 03:04:09 10° SSW night (unlit)
31 Mar - 19:27:42 10° SW 19:32:12 34° SSE 19:37:23 10° E daylight
31 Mar - 21:13:28 10° WSW 21:18:50 65° S 21:25:10 10° E visible
31 Mar - 23:00:02 10° W 23:05:53 62° S 23:12:39 10° ESE visible
01 Apr - 00:47:06 10° W 00:52:49 34° SSW 00:59:05 10° SE night (unlit)
01 Apr - 02:37:15 10° WSW 02:39:14 11° SW 02:41:15 10° SSW night (unlit)
01 Apr - 19:05:25 10° SW 19:09:46 34° SSE 19:14:47 10° E daylight
01 Apr - 20:51:10 10° WSW 20:56:22 65° S 21:02:30 10° E visible
01 Apr - 22:37:41 10° W 22:43:23 61° S 22:49:59 10° ESE visible
02 Apr - 00:24:43 10° W 00:30:17 33° SSW 00:36:24 10° SE night (unlit)
02 Apr - 02:15:08 10° SW 02:16:41 11° SW 02:18:15 10° SSW night (unlit)
02 Apr - 18:43:08 10° SW 18:47:21 33° SSE 18:52:12 10° E daylight
02 Apr - 20:28:52 10° WSW 20:33:55 64° S 20:39:54 10° E visible
02 Apr - 22:15:22 10° W 22:20:53 60° S 22:27:20 10° ESE visible
03 Apr - 00:02:22 10° W 00:07:44 32° SSW 00:13:42 10° SSE visible
03 Apr - 01:53:22 10° SW 01:54:08 10° SW 01:54:55 10° SSW night (unlit)
03 Apr - 18:20:52 10° SW 18:24:57 33° SSE 18:29:37 10° E daylight
03 Apr - 20:06:35 10° WSW 20:11:29 64° S 20:17:16 10° E visible
03 Apr - 21:53:03 10° W 21:58:24 59° S 22:04:40 10° ESE visible
03 Apr - 23:40:02 10° W 23:45:12 31° SSW 23:51:01 10° SSE visible
04 Apr - 17:58:35 10° SW 18:02:33 32° SSE 18:07:03 10° E daylight
04 Apr - 19:44:18 10° WSW 19:49:03 63° S 19:54:40 10° E visible
04 Apr - 21:30:45 10° W 21:35:55 57° SSW 21:42:01 10° ESE visible
04 Apr - 23:17:43 10° W 23:22:42 29° SSW 23:28:19 10° SSE visible
05 Apr - 17:36:18 10° SW 17:40:11 32° SSE 17:44:31 10° E daylight
05 Apr - 19:22:01 10° WSW 19:26:39 62° S 19:32:03 10° E daylight
05 Apr - 21:08:27 10° W 21:13:28 56° SSW 21:19:22 10° ESE visible
05 Apr - 22:55:25 10° W 23:00:11 28° SSW 23:05:36 10° SSE visible
06 Apr - 17:14:00 10° SW 17:17:47 31° SSE 17:22:00 10° E daylight
06 Apr - 18:59:45 10° WSW 19:04:15 62° S 19:09:29 10° E daylight
06 Apr - 20:46:10 10° W 20:51:02 55° SSW 20:56:44 10° ESE visible
06 Apr - 22:33:08 10° W 22:37:43 27° SSW 22:42:53 10° SSE visible
07 Apr - 16:51:42 10° SW 16:55:26 31° SSE 16:59:30 10° E daylight
07 Apr - 18:37:28 10° WSW 18:41:52 61° S 18:46:55 10° E daylight
07 Apr - 20:23:53 10° W 20:28:36 53° SSW 20:34:07 10° ESE visible
07 Apr - 22:10:51 10° W 22:15:14 26° SSW 22:20:11 10° SSE visible
08 Apr - 16:29:23 10° SW 16:33:04 31° SSE 16:37:02 10° E daylight
08 Apr - 18:15:12 10° WSW 18:19:29 61° S 18:24:22 10° E daylight
08 Apr - 20:01:37 10° W 20:06:11 52° SSW 20:11:30 10° ESE visible
08 Apr - 21:48:35 10° W 21:52:46 25° SSW 21:57:29 10° SSE visible
